OBJECT L, 66676

Orbit data source: Space-Track

You're viewing an Uncataloged Satellite

Recently launched and/or uncataloged satellites may have evolving metadata. Metadata may include but not limited to: Owner, Maufacturer, Bus, Motor, and Mission.

OBJECT L, 66676 is a satellite in SSO that was launched on Fri, 28 Nov 2025 UTC via an FALCON 9 launch vehicle from the Air Force Western Test Range (AFWTR). Unknown objects in Earth's orbit typically refer to objects detected orbiting the Earth but have not yet been identified or cataloged. These objects could be anything from previously untracked satellites, spent rocket stages, debris from satellite collisions, or even natural meteoroids temporarily captured by Earth's gravity.

Loading next visibility...
Identifier
66676, 2025-276L
Orbit
SSO
Country
Flag of TBDTBD
Related business
None
Manufacturer
Unknown
Mission
Operational Civil Technology
Bus & Motor
Unknown
Mass
Unknown
Launch date (UTC)
2025-11-28 (6 months ago)
Launch vehicle
FALCON 9
Launch site
Air Force Western Test Range (AFWTR)
Object type
Unknown
Shape & HBR
Box + 2 Ant, 0.1 m
Radar Cross Section
0.006 m²

Expand to show TLE details & history
Last TLE update: 14 hours ago

TLE from 14 hours ago
0 OBJECT L
1 66676U 25276L   26144.64731670  .00004083  00000-0  19964-3 0  9991
2 66676  97.4180 218.3507 0007632  90.0896 270.1213 15.18752248 26836
Epoch: 2026-05-24T15:32Z
TLE epoch observation values (Epoch: 2026-05-24T15:32:08.162Z)
Latitude
-0.00005°
Longitude
103.07024°
Altitude
512.692 km
Speed
7.607 km/s
True Right ascension
14h 33m 24s
True Declination
0° 00' 00"
Sunlit
Object was in full shadow at epoch
Visualization orbit readout
Latitude
Unknown
Longitude
Unknown
Altitude
Unknown
Speed
Unknown
Apparent Right ascension
Unknown
Apparent Declination
Unknown
Sunlit
N/A
Visualization observer readout
Local Sidereal Time
14:31:41
Azimuth
Unknown
Elevation
Unknown
Doppler factor
Unknown
Orbital elements
Apogee altitude
511.833 km
Perigee altitude
501.324 km
Semi-major axis
6,884.716 km
Eccentricity
0.00076
Inclination
97.418°
RAAN
218.3507°
Arg. of periapsis
90.0896°
True anomaly
270.03384°
Mean anomaly
270.1213°
Eccentric anomaly
270.07757°
Mean motion
3.79939 °/min
Orbital period
94.75 mins
BSTAR
0.00019964
Loading maneuver chart data...
Computing Atmospheric mass density...
Loading historical data...
Loading historical data...
Loading historical data...
Loading historical data...
Loading historical data...
Loading historical data...
Loading historical data...

Documentation

Showing up to 5 results
|